Time,TemperatureF,DewpointF,PressureIn,WindDirection,WindDirectionDegrees,WindSpeedMPH,WindSpeedGustMPH,Humidity,HourlyPrecipIn,Conditions,Clouds,dailyrainin,SoftwareType,DateUTC
2013-04-12 00:03:00,69.0,68.0,-100.00,South,175,4.0,8.0,99,-99.99,,,-99.99,,2013-04-12 04:03:00,
2013-04-12 00:13:00,68.0,68.0,-100.00,SE,135,4.0,10.0,99,-99.99,,,-99.99,,2013-04-12 04:13:00,
2013-04-12 00:23:00,68.0,68.0,-100.00,SSE,155,4.0,9.0,99,-99.99,,,-99.99,,2013-04-12 04:23:00,
2013-04-12 00:33:00,69.0,68.0,-100.00,ESE,120,2.0,10.0,99,-99.99,,,-99.99,,2013-04-12 04:33:00,
2013-04-12 00:43:00,68.0,68.0,-100.00,SSE,155,4.0,11.0,99,-99.99,,,-99.99,,2013-04-12 04:43:00,
2013-04-12 00:52:00,68.0,68.0,-100.00,SSW,205,6.0,15.0,99,-99.99,,,-99.99,,2013-04-12 04:52:00,
2013-04-12 01:03:00,68.0,68.0,-100.00,SSW,200,7.0,13.0,99,-99.99,,,-99.99,,2013-04-12 05:03:00,
2013-04-12 01:12:00,68.0,68.0,-100.00,SE,145,4.0,17.0,99,-99.99,,,-99.99,,2013-04-12 05:12:00,
2013-04-12 01:23:00,68.0,68.0,-100.00,SE,145,8.0,19.0,99,-99.99,,,-99.99,,2013-04-12 05:23:00,
2013-04-12 01:32:00,68.0,68.0,-100.00,SSW,200,6.0,19.0,99,-99.99,,,-99.99,,2013-04-12 05:32:00,
2013-04-12 01:42:00,68.0,67.0,-100.00,South,190,10.0,21.0,99,-99.99,,,-99.99,,2013-04-12 05:42:00,
2013-04-12 01:52:00,68.0,67.0,-100.00,South,190,10.0,21.0,99,-99.99,,,-99.99,,2013-04-12 05:52:00,
2013-04-12 02:02:00,67.0,66.0,-100.00,SSW,195,11.0,20.0,99,-99.99,,,-99.99,,2013-04-12 06:02:00,
2013-04-12 02:12:00,67.0,66.0,-100.00,SW,235,10.0,21.0,97,-99.99,,,-99.99,,2013-04-12 06:12:00,
2013-04-12 02:22:00,65.0,64.0,-100.00,SW,225,8.0,20.0,99,-99.99,,,-99.99,,2013-04-12 06:22:00,
2013-04-12 02:32:00,64.0,64.0,-100.00,SW,215,8.0,17.0,99,-99.99,,,-99.99,,2013-04-12 06:32:00,
2013-04-12 02:42:00,64.0,63.0,-100.00,SW,225,8.0,19.0,99,-99.99,,,-99.99,,2013-04-12 06:42:00,
2013-04-12 02:52:00,64.0,63.0,-100.00,SW,225,8.0,19.0,99,-99.99,,,-99.99,,2013-04-12 06:52:00,
2013-04-12 03:02:00,63.0,63.0,-100.00,SW,220,8.0,17.0,99,-99.99,,,-99.99,,2013-04-12 07:02:00,
2013-04-12 03:12:00,63.0,63.0,-100.00,SSW,195,4.0,11.0,99,-99.99,,,-99.99,,2013-04-12 07:12:00,
2013-04-12 03:22:00,63.0,62.0,-100.00,South,180,4.0,9.0,99,-99.99,,,-99.99,,2013-04-12 07:22:00,
2013-04-12 03:32:00,63.0,62.0,-100.00,SW,220,3.0,7.0,99,-99.99,,,-99.99,,2013-04-12 07:32:00,
2013-04-12 03:42:00,63.0,62.0,-100.00,SW,225,4.0,9.0,99,-99.99,,,-99.99,,2013-04-12 07:42:00,
2013-04-12 03:52:00,63.0,62.0,-100.00,South,185,4.0,9.0,99,-99.99,,,-99.99,,2013-04-12 07:52:00,
2013-04-12 04:03:00,63.0,62.0,-100.00,South,175,4.0,9.0,99,-99.99,,,-99.99,,2013-04-12 08:03:00,
2013-04-12 04:12:00,62.0,62.0,-100.00,SE,145,3.0,9.0,99,-99.99,,,-99.99,,2013-04-12 08:12:00,
2013-04-12 04:22:00,62.0,62.0,-100.00,South,185,1.0,6.0,99,-99.99,,,-99.99,,2013-04-12 08:22:00,
2013-04-12 04:32:00,62.0,62.0,-100.00,ENE,75,2.0,4.0,99,-99.99,,,-99.99,,2013-04-12 08:32:00,
2013-04-12 04:42:00,62.0,62.0,-100.00,ENE,60,2.0,2.0,99,-99.99,,,-99.99,,2013-04-12 08:42:00,
2013-04-12 04:52:00,62.0,62.0,-100.00,East,80,2.0,4.0,99,-99.99,,,-99.99,,2013-04-12 08:52:00,
2013-04-12 05:02:00,63.0,62.0,-100.00,ESE,115,1.0,4.0,99,-99.99,,,-99.99,,2013-04-12 09:02:00,
2013-04-12 05:12:00,62.0,62.0,-100.00,ESE,110,1.0,3.0,99,-99.99,,,-99.99,,2013-04-12 09:12:00,
2013-04-12 05:22:00,63.0,62.0,-100.00,ESE,115,1.0,4.0,99,-99.99,,,-99.99,,2013-04-12 09:22:00,
2013-04-12 05:33:00,62.0,62.0,-100.00,ESE,110,1.0,4.0,99,-99.99,,,-99.99,,2013-04-12 09:33:00,
2013-04-12 05:43:00,63.0,62.0,-100.00,ESE,110,3.0,5.0,99,-99.99,,,-99.99,,2013-04-12 09:43:00,
2013-04-12 05:52:00,63.0,62.0,-100.00,ESE,120,2.0,4.0,99,-99.99,,,-99.99,,2013-04-12 09:52:00,
2013-04-12 06:03:00,63.0,62.0,-100.00,SSE,150,2.0,5.0,99,-99.99,,,-99.99,,2013-04-12 10:03:00,
2013-04-12 06:13:00,63.0,62.0,-100.00,SSE,165,1.0,4.0,99,-99.99,,,-99.99,,2013-04-12 10:13:00,
2013-04-12 06:23:00,63.0,63.0,-100.00,SSE,165,7.0,13.0,99,-99.99,,,-99.99,,2013-04-12 10:23:00,
2013-04-12 06:34:00,63.0,63.0,-100.00,South,190,9.0,17.0,99,-99.99,,,-99.99,,2013-04-12 10:34:00,
2013-04-12 06:42:00,63.0,63.0,-100.00,SSW,210,10.0,15.0,99,-99.99,,,-99.99,,2013-04-12 10:42:00,
2013-04-12 06:52:00,64.0,64.0,-100.00,SSW,200,6.0,16.0,99,-99.99,,,-99.99,,2013-04-12 10:52:00,
2013-04-12 07:03:00,64.0,64.0,-100.00,SW,220,7.0,14.0,99,-99.99,,,-99.99,,2013-04-12 11:03:00,
2013-04-12 07:13:00,65.0,64.0,-100.00,SW,220,6.0,14.0,99,-99.99,,,-99.99,,2013-04-12 11:13:00,
2013-04-12 07:22:00,65.0,65.0,-100.00,SW,220,5.0,16.0,99,-99.99,,,-99.99,,2013-04-12 11:22:00,
2013-04-12 07:33:00,65.0,65.0,-100.00,South,190,5.0,11.0,99,-99.99,,,-99.99,,2013-04-12 11:33:00,
2013-04-12 07:43:00,65.0,65.0,-100.00,SW,230,6.0,14.0,99,-99.99,,,-99.99,,2013-04-12 11:43:00,
2013-04-12 07:52:00,66.0,65.0,-100.00,SSW,200,8.0,13.0,99,-99.99,,,-99.99,,2013-04-12 11:52:00,
2013-04-12 08:03:00,66.0,66.0,-100.00,SW,225,8.0,16.0,99,-99.99,,,-99.99,,2013-04-12 12:03:00,
2013-04-12 08:13:00,66.0,66.0,-100.00,SW,220,5.0,16.0,99,-99.99,,,-99.99,,2013-04-12 12:13:00,
2013-04-12 08:22:00,66.0,66.0,-100.00,SW,215,5.0,11.0,99,-99.99,,,-99.99,,2013-04-12 12:22:00,
2013-04-12 08:33:00,66.0,66.0,-100.00,SSW,205,4.0,10.0,99,-99.99,,,-99.99,,2013-04-12 12:33:00,
2013-04-12 08:42:00,67.0,66.0,-100.00,SSW,205,5.0,9.0,99,-99.99,,,-99.99,,2013-04-12 12:42:00,
2013-04-12 08:52:00,67.0,67.0,-100.00,SW,220,4.0,11.0,99,-99.99,,,-99.99,,2013-04-12 12:52:00,
2013-04-12 09:03:00,68.0,68.0,-100.00,SSW,200,3.0,11.0,99,-99.99,,,-99.99,,2013-04-12 13:03:00,
2013-04-12 09:12:00,69.0,68.0,-100.00,SSW,200,4.0,8.0,99,-99.99,,,-99.99,,2013-04-12 13:12:00,
2013-04-12 09:22:00,69.0,68.0,-100.00,SW,215,8.0,14.0,99,-99.99,,,-99.99,,2013-04-12 13:22:00,
2013-04-12 09:32:00,69.0,68.0,-100.00,SSW,195,6.0,11.0,98,-99.99,,,-99.99,,2013-04-12 13:32:00,
2013-04-12 09:42:00,69.0,68.0,-100.00,SSW,195,6.0,11.0,95,-99.99,,,-99.99,,2013-04-12 13:42:00,
2013-04-12 09:52:00,70.0,68.0,-100.00,SSW,200,6.0,14.0,93,-99.99,,,-99.99,,2013-04-12 13:52:00,
2013-04-12 10:03:00,71.0,68.0,-100.00,South,185,6.0,14.0,91,-99.99,,,-99.99,,2013-04-12 14:03:00,
2013-04-12 10:13:00,70.0,67.0,-100.00,SSW,200,6.0,17.0,88,-99.99,,,-99.99,,2013-04-12 14:13:00,
2013-04-12 10:23:00,71.0,66.0,-100.00,SSW,200,9.0,15.0,85,-99.99,,,-99.99,,2013-04-12 14:23:00,
2013-04-12 10:33:00,71.0,66.0,-100.00,SW,215,8.0,15.0,83,-99.99,,,-99.99,,2013-04-12 14:33:00,
2013-04-12 10:42:00,73.0,66.0,-100.00,South,190,6.0,11.0,80,-99.99,,,-99.99,,2013-04-12 14:42:00,
2013-04-12 10:53:00,73.0,66.0,-100.00,South,190,6.0,11.0,80,-99.99,,,-99.99,,2013-04-12 14:53:00,
2013-04-12 11:03:00,73.0,65.0,-100.00,SSW,200,6.0,13.0,76,-99.99,,,-99.99,,2013-04-12 15:03:00,
2013-04-12 11:12:00,75.0,65.0,-100.00,SW,220,6.0,12.0,73,-99.99,,,-99.99,,2013-04-12 15:12:00,
2013-04-12 11:22:00,75.0,65.0,-100.00,SW,235,6.0,9.0,71,-99.99,,,-99.99,,2013-04-12 15:22:00,
2013-04-12 11:33:00,76.0,64.0,-100.00,SSW,210,7.0,16.0,67,-99.99,,,-99.99,,2013-04-12 15:33:00,
2013-04-12 11:43:00,76.0,62.0,-100.00,SW,220,6.0,16.0,63,-99.99,,,-99.99,,2013-04-12 15:43:00,
2013-04-12 11:53:00,76.0,61.0,-100.00,SSW,210,9.0,14.0,60,-99.99,,,-99.99,,2013-04-12 15:53:00,
2013-04-12 12:04:00,76.0,60.0,-100.00,SSW,200,11.0,21.0,57,-99.99,,,-99.99,,2013-04-12 16:04:00,
2013-04-12 12:13:00,77.0,59.0,-100.00,SSW,195,10.0,18.0,54,-99.99,,,-99.99,,2013-04-12 16:13:00,
2013-04-12 12:23:00,78.0,59.0,-100.00,SSW,210,9.0,19.0,52,-99.99,,,-99.99,,2013-04-12 16:23:00,
2013-04-12 12:33:00,78.0,58.0,-100.00,SW,215,8.0,24.0,50,-99.99,,,-99.99,,2013-04-12 16:33:00,
2013-04-12 12:43:00,78.0,57.0,-100.00,SSW,200,10.0,21.0,48,-99.99,,,-99.99,,2013-04-12 16:43:00,
2013-04-12 12:53:00,78.0,56.0,-100.00,SW,225,10.0,24.0,47,-99.99,,,-99.99,,2013-04-12 16:53:00,
2013-04-12 13:04:00,78.0,55.0,-100.00,SW,225,12.0,24.0,45,-99.99,,,-99.99,,2013-04-12 17:04:00,
2013-04-12 13:12:00,79.0,55.0,-100.00,SW,235,7.0,19.0,45,-99.99,,,-99.99,,2013-04-12 17:12:00,
2013-04-12 13:23:00,79.0,56.0,-100.00,SW,230,14.0,20.0,45,-99.99,,,-99.99,,2013-04-12 17:23:00,
2013-04-12 13:34:00,79.0,55.0,-100.00,SW,220,11.0,24.0,44,-99.99,,,-99.99,,2013-04-12 17:34:00,
2013-04-12 13:46:00,79.0,54.0,-100.00,SW,220,11.0,21.0,42,-99.99,,,-99.99,,2013-04-12 17:46:00,
2013-04-12 14:00:00,79.0,54.0,-100.00,SW,220,11.0,21.0,42,-99.99,,,-99.99,,2013-04-12 18:00:00,
2013-04-12 14:24:00,79.0,51.0,-100.00,SW,235,11.0,23.0,38,-99.99,,,-99.99,,2013-04-12 18:24:00,
2013-04-12 15:27:00,80.0,51.0,-100.00,SSW,200,14.0,26.0,37,-99.99,,,-99.99,,2013-04-12 19:27:00,
2013-04-12 15:33:00,81.0,51.0,-100.00,SW,230,6.0,18.0,35,-99.99,,,-99.99,,2013-04-12 19:33:00,
2013-04-12 15:43:00,81.0,50.0,-100.00,SSW,200,8.0,18.0,34,-99.99,,,-99.99,,2013-04-12 19:43:00,
2013-04-12 15:52:00,81.0,50.0,-100.00,SW,225,12.0,24.0,34,-99.99,,,-99.99,,2013-04-12 19:52:00,
2013-04-12 16:02:00,80.0,49.0,-100.00,SW,220,11.0,26.0,34,-99.99,,,-99.99,,2013-04-12 20:02:00,
2013-04-12 16:13:00,81.0,49.0,-100.00,SW,230,11.0,21.0,33,-99.99,,,-99.99,,2013-04-12 20:13:00,
2013-04-12 16:22:00,81.0,50.0,-100.00,SSW,200,9.0,23.0,34,-99.99,,,-99.99,,2013-04-12 20:22:00,
2013-04-12 16:33:00,81.0,49.0,-100.00,WSW,250,10.0,17.0,33,-99.99,,,-99.99,,2013-04-12 20:33:00,
2013-04-12 16:42:00,81.0,49.0,-100.00,WSW,250,11.0,19.0,33,-99.99,,,-99.99,,2013-04-12 20:42:00,
2013-04-12 16:52:00,80.0,48.0,-100.00,SSW,210,11.0,19.0,33,-99.99,,,-99.99,,2013-04-12 20:52:00,
2013-04-12 17:03:00,80.0,48.0,-100.00,SSW,210,11.0,18.0,33,-99.99,,,-99.99,,2013-04-12 21:03:00,
2013-04-12 17:12:00,80.0,47.0,-100.00,SW,225,9.0,19.0,32,-99.99,,,-99.99,,2013-04-12 21:12:00,
2013-04-12 17:22:00,80.0,48.0,-100.00,SW,220,9.0,16.0,33,-99.99,,,-99.99,,2013-04-12 21:22:00,
2013-04-12 17:33:00,79.0,47.0,-100.00,SW,220,11.0,19.0,33,-99.99,,,-99.99,,2013-04-12 21:33:00,
2013-04-12 17:43:00,79.0,47.0,-100.00,SSW,210,9.0,16.0,33,-99.99,,,-99.99,,2013-04-12 21:43:00,
2013-04-12 17:52:00,79.0,47.0,-100.00,SW,215,8.0,18.0,32,-99.99,,,-99.99,,2013-04-12 21:52:00,
2013-04-12 18:02:00,79.0,47.0,-100.00,SW,225,8.0,19.0,33,-99.99,,,-99.99,,2013-04-12 22:02:00,
2013-04-12 18:13:00,79.0,47.0,-100.00,SW,230,8.0,16.0,33,-99.99,,,-99.99,,2013-04-12 22:13:00,
2013-04-12 18:22:00,78.0,46.0,-100.00,WSW,255,6.0,14.0,32,-99.99,,,-99.99,,2013-04-12 22:22:00,
2013-04-12 18:33:00,78.0,47.0,-100.00,WSW,250,6.0,14.0,33,-99.99,,,-99.99,,2013-04-12 22:33:00,
2013-04-12 18:43:00,78.0,47.0,-100.00,SW,230,6.0,10.0,33,-99.99,,,-99.99,,2013-04-12 22:43:00,
2013-04-12 18:52:00,79.0,49.0,-100.00,WNW,295,6.0,11.0,35,-99.99,,,-99.99,,2013-04-12 22:52:00,
2013-04-12 19:04:00,79.0,49.0,-100.00,NW,310,5.0,11.0,35,-99.99,,,-99.99,,2013-04-12 23:04:00,
2013-04-12 19:12:00,78.0,48.0,-100.00,WNW,295,6.0,11.0,35,-99.99,,,-99.99,,2013-04-12 23:12:00,
2013-04-12 19:22:00,78.0,48.0,-100.00,WNW,290,4.0,9.0,35,-99.99,,,-99.99,,2013-04-12 23:22:00,
2013-04-12 19:32:00,77.0,47.0,-100.00,West,260,4.0,7.0,35,-99.99,,,-99.99,,2013-04-12 23:32:00,
2013-04-12 19:42:00,76.0,46.0,-100.00,WSW,255,4.0,7.0,35,-99.99,,,-99.99,,2013-04-12 23:42:00,
2013-04-12 19:52:00,74.0,45.0,-100.00,SW,225,3.0,8.0,36,-99.99,,,-99.99,,2013-04-12 23:52:00,
2013-04-12 20:02:00,74.0,45.0,-100.00,SW,225,3.0,8.0,36,-99.99,,,-99.99,,2013-04-13 00:02:00,
2013-04-12 20:12:00,72.0,45.0,-100.00,West,270,4.0,7.0,37,-99.99,,,-99.99,,2013-04-13 00:12:00,
2013-04-12 20:22:00,72.0,45.0,-100.00,SW,215,2.0,5.0,38,-99.99,,,-99.99,,2013-04-13 00:22:00,
2013-04-12 20:32:00,72.0,45.0,-100.00,SW,215,2.0,5.0,38,-99.99,,,-99.99,,2013-04-13 00:32:00,
2013-04-12 20:42:00,70.0,44.0,-100.00,West,280,2.0,4.0,39,-99.99,,,-99.99,,2013-04-13 00:42:00,
2013-04-12 20:52:00,68.0,44.0,-100.00,SW,225,0.0,2.0,41,-99.99,,,-99.99,,2013-04-13 00:52:00,
2013-04-12 21:02:00,67.0,44.0,-100.00,West,275,3.0,6.0,43,-99.99,,,-99.99,,2013-04-13 01:02:00,
2013-04-12 21:13:00,67.0,44.0,-100.00,West,265,4.0,8.0,43,-99.99,,,-99.99,,2013-04-13 01:13:00,
2013-04-12 21:22:00,67.0,44.0,-100.00,West,270,4.0,10.0,43,-99.99,,,-99.99,,2013-04-13 01:22:00,
2013-04-12 21:33:00,66.0,43.0,-100.00,SW,235,1.0,6.0,44,-99.99,,,-99.99,,2013-04-13 01:33:00,
2013-04-12 21:43:00,66.0,44.0,-100.00,West,260,5.0,10.0,45,-99.99,,,-99.99,,2013-04-13 01:43:00,
2013-04-12 21:52:00,65.0,43.0,-100.00,WNW,295,11.0,20.0,45,-99.99,,,-99.99,,2013-04-13 01:52:00,
2013-04-12 22:02:00,65.0,43.0,-100.00,WNW,290,7.0,19.0,45,-99.99,,,-99.99,,2013-04-13 02:02:00,
2013-04-12 22:12:00,64.0,43.0,-100.00,NW,305,11.0,17.0,45,-99.99,,,-99.99,,2013-04-13 02:12:00,
2013-04-12 22:23:00,64.0,43.0,-100.00,WNW,290,6.0,14.0,46,-99.99,,,-99.99,,2013-04-13 02:23:00,
2013-04-12 22:33:00,63.0,42.0,-100.00,WNW,295,6.0,15.0,46,-99.99,,,-99.99,,2013-04-13 02:33:00,
2013-04-12 22:42:00,63.0,42.0,-100.00,NW,310,7.0,13.0,46,-99.99,,,-99.99,,2013-04-13 02:42:00,
2013-04-12 22:52:00,63.0,42.0,-100.00,NW,305,7.0,15.0,46,-99.99,,,-99.99,,2013-04-13 02:52:00,
2013-04-12 23:03:00,62.0,40.0,-100.00,WNW,300,8.0,15.0,44,-99.99,,,-99.99,,2013-04-13 03:03:00,
2013-04-12 23:12:00,62.0,39.0,-100.00,WNW,300,5.0,13.0,43,-99.99,,,-99.99,,2013-04-13 03:12:00,
2013-04-12 23:23:00,62.0,39.0,-100.00,WNW,300,8.0,14.0,43,-99.99,,,-99.99,,2013-04-13 03:23:00,
2013-04-12 23:33:00,61.0,39.0,-100.00,NW,310,6.0,12.0,44,-99.99,,,-99.99,,2013-04-13 03:33:00,
2013-04-12 23:43:00,60.0,38.0,-100.00,WNW,290,4.0,8.0,44,-99.99,,,-99.99,,2013-04-13 03:43:00,
2013-04-12 23:53:00,60.0,40.0,-100.00,NW,310,3.0,10.0,47,-99.99,,,-99.99,,2013-04-13 03:53:00,